• In Hungary
  • List of Countries
  • For 7 days
  • Water Temperature
  • Satellite Maps
  • Weather Map
  • News
  • Weather Widgets
  • user-avatar
    Login

    Hourly Weather Sinsheim

    Today, 19 November, Sunday

    Time Temperature Precipitation Wind Pressure Humidity
    00:00 +2°C° 0.5 mm 5 mps 748 mmHg 82%
    01:00 +2°C° 0.5 mm 6 mps 747 mmHg 83%
    02:00 +3°C° 0.6 mm 6 mps 747 mmHg 84%
    03:00 +3°C° 0.6 mm 5 mps 747 mmHg 85%
    04:00 +3°C° 0.6 mm 5 mps 746 mmHg 87%
    05:00 +3°C° 0.4 mm 5 mps 746 mmHg 87%
    06:00 +3°C° 0.4 mm 5 mps 747 mmHg 87%
    07:00 +4°C° 0.4 mm 4 mps 747 mmHg 87%
    08:00 +4°C° 0.2 mm 4 mps 747 mmHg 84%
    09:00 +5°C° 0.2 mm 4 mps 748 mmHg 80%
    10:00 +5°C° 0.2 mm 4 mps 748 mmHg 77%
    11:00 +5°C° 0 mm 4 mps 749 mmHg 73%
    12:00 +6°C° 0 mm 5 mps 749 mmHg 70%
    13:00 +6°C° 0 mm 5 mps 749 mmHg 67%
    14:00 +6°C° 0.1 mm 5 mps 749 mmHg 69%
    15:00 +6°C° 0.1 mm 4 mps 749 mmHg 72%
    16:00 +5°C° 0.1 mm 4 mps 750 mmHg 74%
    17:00 +5°C° 0.1 mm 4 mps 750 mmHg 77%
    18:00 +4°C° 0.1 mm 4 mps 750 mmHg 80%
    19:00 +4°C° 0.1 mm 4 mps 751 mmHg 83%
    20:00 +4°C° 0.1 mm 4 mps 751 mmHg 84%
    21:00 +4°C° 0.1 mm 4 mps 752 mmHg 85%
    22:00 +4°C° 0.1 mm 4 mps 752 mmHg 86%
    23:00 +3°C° 0.1 mm 4 mps 752 mmHg 87%

    Tomorrow, 20 November, Monday

    Time Temperature Precipitation Wind Pressure Humidity
    00:00 +3°C° 0.1 mm 4 mps 752 mmHg 88%
    01:00 +3°C° 0.1 mm 4 mps 753 mmHg 88%
    02:00 +1°C° 0 mm 4 mps 753 mmHg 89%
    03:00 +2°C° 0 mm 3 mps 753 mmHg 90%
    04:00 +1°C° 0 mm 3 mps 753 mmHg 91%
    05:00 +1°C° 0 mm 3 mps 753 mmHg 91%
    06:00 +1°C° 0 mm 3 mps 753 mmHg 91%
    07:00 0°C° 0 mm 3 mps 753 mmHg 91%
    08:00 +1°C° 0 mm 3 mps 753 mmHg 88%
    09:00 +2°C° 0 mm 3 mps 753 mmHg 84%
    10:00 +2°C° 0 mm 3 mps 753 mmHg 80%
    11:00 +3°C° 0 mm 3 mps 752 mmHg 76%
    12:00 +4°C° 0 mm 4 mps 752 mmHg 73%
    13:00 +4°C° 0 mm 4 mps 751 mmHg 70%
    14:00 +4°C° 0 mm 4 mps 751 mmHg 69%
    15:00 +4°C° 0 mm 4 mps 750 mmHg 69%
    16:00 +5°C° 0 mm 4 mps 749 mmHg 69%
    17:00 +4°C° 0 mm 4 mps 749 mmHg 70%
    18:00 +4°C° 0 mm 4 mps 748 mmHg 72%
    19:00 +4°C° 0 mm 4 mps 748 mmHg 73%
    20:00 +5°C° 0.1 mm 5 mps 748 mmHg 75%
    21:00 +5°C° 0.1 mm 5 mps 748 mmHg 76%
    22:00 +5°C° 0.1 mm 5 mps 748 mmHg 78%
    23:00 +4°C° 0.8 mm 6 mps 748 mmHg 80%

    Day after tomorrow, 21 November, Tuesday

    Time Temperature Precipitation Wind Pressure Humidity
    00:00 +4°C° 0.8 mm 6 mps 748 mmHg 83%
    01:00 +5°C° 0.8 mm 6 mps 748 mmHg 85%
    02:00 +5°C° 0.1 mm 6 mps 748 mmHg 86%
    03:00 +5°C° 0.1 mm 6 mps 748 mmHg 87%
    04:00 +5°C° 0.1 mm 6 mps 748 mmHg 87%
    05:00 +5°C° 0.1 mm 6 mps 748 mmHg 87%
    06:00 +5°C° 0.1 mm 6 mps 748 mmHg 87%
    07:00 +5°C° 0.1 mm 6 mps 748 mmHg 88%
    08:00 +6°C° 0.2 mm 5 mps 748 mmHg 87%
    09:00 +6°C° 0.2 mm 5 mps 748 mmHg 87%
    10:00 +7°C° 0.2 mm 5 mps 748 mmHg 86%
    11:00 +7°C° 0.2 mm 5 mps 748 mmHg 84%
    12:00 +8°C° 0.2 mm 5 mps 748 mmHg 83%
    13:00 +8°C° 0.2 mm 5 mps 748 mmHg 81%
    14:00 +8°C° 0 mm 4 mps 748 mmHg 82%
    15:00 +8°C° 0 mm 4 mps 748 mmHg 83%
    16:00 +8°C° 0 mm 3 mps 748 mmHg 84%
    17:00 +8°C° 0 mm 3 mps 748 mmHg 86%
    18:00 +7°C° 0 mm 3 mps 748 mmHg 87%
    19:00 +7°C° 0 mm 2 mps 748 mmHg 88%
    20:00 +7°C° 0 mm 2 mps 748 mmHg 88%
    21:00 +6°C° 0 mm 2 mps 748 mmHg 87%
    22:00 +6°C° 0 mm 2 mps 748 mmHg 87%
    23:00 +6°C° 0 mm 2 mps 748 mmHg 87%

    22 November, Wednesday

    Time Temperature Precipitation Wind Pressure Humidity
    00:00 +5°C° 0 mm 2 mps 748 mmHg 86%
    01:00 +5°C° 0 mm 2 mps 747 mmHg 86%
    02:00 +5°C° 0 mm 2 mps 747 mmHg 85%
    03:00 +5°C° 0 mm 2 mps 747 mmHg 85%
    04:00 +5°C° 0 mm 2 mps 747 mmHg 85%
    05:00 +5°C° 0 mm 2 mps 747 mmHg 85%
    06:00 +5°C° 0 mm 2 mps 747 mmHg 85%
    07:00 +5°C° 0 mm 2 mps 747 mmHg 84%
    08:00 +5°C° 0 mm 2 mps 747 mmHg 81%
    09:00 +6°C° 0 mm 2 mps 747 mmHg 77%
    10:00 +7°C° 0 mm 2 mps 747 mmHg 74%
    11:00 +9°C° 0 mm 2 mps 747 mmHg 70%
    12:00 +10°C° 0 mm 2 mps 747 mmHg 67%
    13:00 +12°C° 0 mm 2 mps 746 mmHg 63%
    14:00 +10°C° 0 mm 2 mps 746 mmHg 67%
    15:00 +10°C° 0 mm 2 mps 746 mmHg 70%
    16:00 +10°C° 0 mm 1 mps 746 mmHg 74%
    17:00 +9°C° 0 mm 1 mps 746 mmHg 75%
    18:00 +9°C° 0 mm 1 mps 746 mmHg 77%
    19:00 +7°C° 0 mm 2 mps 746 mmHg 78%
    20:00 +7°C° 0 mm 2 mps 746 mmHg 77%
    21:00 +6°C° 0 mm 2 mps 746 mmHg 76%
    22:00 +6°C° 0 mm 2 mps 746 mmHg 75%
    23:00 +6°C° 0 mm 2 mps 746 mmHg 74%

    23 November, Thursday

    Time Temperature Precipitation Wind Pressure Humidity
    00:00 +6°C° 0 mm 2 mps 746 mmHg 72%
    01:00 +6°C° 0 mm 2 mps 746 mmHg 70%
    02:00 +6°C° 0 mm 2 mps 746 mmHg 69%
    03:00 +6°C° 0 mm 2 mps 746 mmHg 68%
    04:00 +6°C° 0 mm 2 mps 745 mmHg 67%
    05:00 +6°C° 0 mm 2 mps 746 mmHg 67%
    06:00 +6°C° 0 mm 2 mps 746 mmHg 67%
    07:00 +6°C° 0 mm 2 mps 746 mmHg 67%
    08:00 +7°C° 0 mm 3 mps 747 mmHg 65%
    09:00 +8°C° 0 mm 3 mps 747 mmHg 64%
    10:00 +9°C° 0 mm 3 mps 747 mmHg 62%
    11:00 +11°C° 0 mm 3 mps 747 mmHg 61%
    12:00 +12°C° 0 mm 3 mps 747 mmHg 60%
    13:00 +13°C° 0 mm 4 mps 747 mmHg 59%
    14:00 +13°C° 0 mm 3 mps 748 mmHg 63%
    15:00 +12°C° 0 mm 3 mps 748 mmHg 67%
    16:00 +12°C° 0 mm 2 mps 748 mmHg 71%
    17:00 +10°C° 0 mm 2 mps 748 mmHg 73%
    18:00 +10°C° 0 mm 2 mps 749 mmHg 75%
    19:00 +9°C° 0 mm 2 mps 749 mmHg 78%
    20:00 +9°C° 0 mm 2 mps 750 mmHg 78%
    21:00 +9°C° 0 mm 2 mps 750 mmHg 79%
    22:00 +8°C° 0 mm 2 mps 750 mmHg 80%
    23:00 +8°C° 0 mm 2 mps 750 mmHg 80%

    24 November, Friday

    Time Temperature Precipitation Wind Pressure Humidity
    00:00 +8°C° 0 mm 2 mps 750 mmHg 80%
    01:00 +8°C° 0 mm 2 mps 750 mmHg 80%
    02:00 +8°C° 0 mm 2 mps 750 mmHg 80%
    03:00 +8°C° 0 mm 2 mps 750 mmHg 79%
    04:00 +7°C° 0 mm 2 mps 750 mmHg 79%
    05:00 +7°C° 0 mm 2 mps 750 mmHg 78%
    06:00 +7°C° 0 mm 2 mps 750 mmHg 77%
    07:00 +7°C° 0 mm 2 mps 750 mmHg 77%
    08:00 +8°C° 0 mm 2 mps 750 mmHg 73%
    09:00 +9°C° 0 mm 2 mps 751 mmHg 69%
    10:00 +9°C° 0 mm 2 mps 751 mmHg 66%
    11:00 +12°C° 0 mm 2 mps 750 mmHg 62%
    12:00 +13°C° 0 mm 2 mps 750 mmHg 58%
    13:00 +14°C° 0 mm 2 mps 750 mmHg 54%
    14:00 +13°C° 0 mm 2 mps 749 mmHg 57%
    15:00 +13°C° 0 mm 2 mps 749 mmHg 61%
    16:00 +12°C° 0 mm 2 mps 749 mmHg 65%
    17:00 +10°C° 0 mm 2 mps 749 mmHg 65%
    18:00 +10°C° 0 mm 2 mps 749 mmHg 65%
    19:00 +9°C° 0 mm 2 mps 749 mmHg 65%
    20:00 +9°C° 0 mm 2 mps 749 mmHg 64%
    21:00 +8°C° 0 mm 2 mps 749 mmHg 63%
    22:00 +8°C° 0 mm 2 mps 749 mmHg 63%
    23:00 +8°C° 0 mm 2 mps 748 mmHg 63%
    Show more